When you browse on this site, cookies collect data to enhance your experience and personalize the content and advertising you see.
Visit our Privacy Policy to learn more. By continuing to use the site, you agree to this use of cookies and data.
  • In Hungary
  • List of Countries
  • For 7 days
  • Water Temperature
  • Weather Map
  • News
  • Weather Widgets
  • user-avatar
    Login

    Hourly Weather Banganapalle

    Today, 20 February, Thursday

    Time Temperature Precipitation Wind Pressure Humidity
    00:00 +24°C° 0 mm 2 mps 741 mmHg 65%
    01:00 +23°C° 0 mm 2 mps 740 mmHg 67%
    02:00 +23°C° 0 mm 2 mps 740 mmHg 69%
    03:00 +21°C° 0 mm 2 mps 740 mmHg 72%
    04:00 +21°C° 0 mm 2 mps 740 mmHg 75%
    05:00 +21°C° 0 mm 1 mps 740 mmHg 77%
    06:00 +21°C° 0 mm 2 mps 741 mmHg 72%
    07:00 +23°C° 0 mm 2 mps 742 mmHg 67%
    08:00 +25°C° 0 mm 3 mps 743 mmHg 61%
    09:00 +27°C° 0 mm 3 mps 742 mmHg 50%
    10:00 +30°C° 0 mm 4 mps 742 mmHg 39%
    11:00 +33°C° 0 mm 4 mps 742 mmHg 33%
    12:00 +35°C° 0 mm 5 mps 741 mmHg 29%
    13:00 +36°C° 0 mm 5 mps 741 mmHg 25%
    14:00 +37°C° 0 mm 5 mps 740 mmHg 21%
    15:00 +36°C° 0 mm 5 mps 740 mmHg 23%
    16:00 +36°C° 0 mm 5 mps 739 mmHg 24%
    17:00 +35°C° 0 mm 6 mps 739 mmHg 25%
    18:00 +33°C° 0 mm 6 mps 740 mmHg 33%
    19:00 +29°C° 0 mm 6 mps 740 mmHg 41%
    20:00 +27°C° 0 mm 6 mps 741 mmHg 49%
    21:00 +26°C° 0 mm 5 mps 741 mmHg 53%
    22:00 +25°C° 0 mm 3 mps 741 mmHg 56%
    23:00 +24°C° 0 mm 2 mps 742 mmHg 60%

    Tomorrow, 21 February, Friday

    Time Temperature Precipitation Wind Pressure Humidity
    00:00 +23°C° 0 mm 2 mps 741 mmHg 64%
    01:00 +21°C° 0 mm 2 mps 741 mmHg 68%
    02:00 +20°C° 0 mm 2 mps 740 mmHg 71%
    03:00 +20°C° 0 mm 2 mps 740 mmHg 76%
    04:00 +19°C° 0 mm 2 mps 740 mmHg 81%
    05:00 +19°C° 0 mm 2 mps 740 mmHg 86%
    06:00 +20°C° 0 mm 3 mps 741 mmHg 80%
    07:00 +21°C° 0 mm 3 mps 742 mmHg 75%
    08:00 +24°C° 0 mm 3 mps 743 mmHg 69%
    09:00 +26°C° 0 mm 4 mps 743 mmHg 56%
    10:00 +29°C° 0 mm 4 mps 743 mmHg 44%
    11:00 +33°C° 0 mm 5 mps 743 mmHg 31%
    18:00 +33°C° 0 mm 6 mps 741 mmHg 33%
    19:00 +30°C° 0 mm 6 mps 742 mmHg 42%
    20:00 +27°C° 0 mm 6 mps 743 mmHg 52%
    21:00 +26°C° 0 mm 5 mps 743 mmHg 58%
    22:00 +25°C° 0 mm 4 mps 743 mmHg 64%
    23:00 +24°C° 0 mm 2 mps 743 mmHg 70%

    Day after tomorrow, 22 February, Saturday

    Time Temperature Precipitation Wind Pressure Humidity
    00:00 +23°C° 0 mm 2 mps 743 mmHg 75%
    01:00 +21°C° 0 mm 2 mps 742 mmHg 79%
    02:00 +21°C° 0 mm 2 mps 742 mmHg 84%
    03:00 +20°C° 0 mm 2 mps 742 mmHg 87%
    04:00 +20°C° 0 mm 2 mps 742 mmHg 90%
    05:00 +20°C° 0 mm 1 mps 742 mmHg 93%
    06:00 +20°C° 0 mm 2 mps 742 mmHg 87%
    07:00 +23°C° 0 mm 2 mps 743 mmHg 82%
    08:00 +24°C° 0 mm 3 mps 744 mmHg 77%
    09:00 +27°C° 0 mm 3 mps 744 mmHg 65%
    10:00 +29°C° 0 mm 4 mps 743 mmHg 54%
    11:00 +33°C° 0 mm 4 mps 743 mmHg 42%
    12:00 +35°C° 0 mm 4 mps 742 mmHg 36%
    13:00 +36°C° 0 mm 4 mps 741 mmHg 29%
    14:00 +37°C° 0 mm 5 mps 740 mmHg 23%
    15:00 +37°C° 0 mm 5 mps 740 mmHg 23%
    16:00 +37°C° 0 mm 5 mps 740 mmHg 23%
    17:00 +36°C° 0 mm 5 mps 740 mmHg 24%
    18:00 +34°C° 0 mm 6 mps 741 mmHg 33%
    19:00 +30°C° 0 mm 6 mps 742 mmHg 43%
    20:00 +28°C° 0 mm 7 mps 742 mmHg 52%
    21:00 +27°C° 0 mm 5 mps 742 mmHg 59%
    22:00 +25°C° 0 mm 4 mps 742 mmHg 65%
    23:00 +24°C° 0 mm 3 mps 742 mmHg 72%

    23 February, Sunday

    Time Temperature Precipitation Wind Pressure Humidity
    00:00 +23°C° 0 mm 2 mps 742 mmHg 76%
    01:00 +21°C° 0 mm 2 mps 742 mmHg 80%
    02:00 +22°C° 0 mm 1 mps 741 mmHg 84%
    03:00 +21°C° 0 mm 1 mps 741 mmHg 86%
    04:00 +20°C° 0 mm 1 mps 741 mmHg 88%
    05:00 +20°C° 0 mm 1 mps 741 mmHg 90%
    06:00 +20°C° 0 mm 2 mps 741 mmHg 85%
    07:00 +22°C° 0 mm 3 mps 742 mmHg 79%
    08:00 +24°C° 0 mm 3 mps 743 mmHg 74%
    09:00 +27°C° 0 mm 4 mps 743 mmHg 60%
    10:00 +30°C° 0 mm 5 mps 743 mmHg 45%
    11:00 +34°C° 0 mm 5 mps 743 mmHg 31%
    12:00 +35°C° 0 mm 5 mps 742 mmHg 27%
    13:00 +36°C° 0 mm 5 mps 741 mmHg 23%
    14:00 +38°C° 0 mm 4 mps 740 mmHg 18%
    15:00 +37°C° 0 mm 5 mps 740 mmHg 19%
    16:00 +37°C° 0 mm 5 mps 739 mmHg 21%
    17:00 +36°C° 0 mm 5 mps 739 mmHg 22%
    18:00 +34°C° 0 mm 6 mps 740 mmHg 33%
    19:00 +30°C° 0 mm 6 mps 740 mmHg 45%
    20:00 +28°C° 0 mm 6 mps 741 mmHg 56%
    21:00 +27°C° 0 mm 5 mps 741 mmHg 63%
    22:00 +26°C° 0 mm 4 mps 741 mmHg 70%
    23:00 +24°C° 0 mm 3 mps 741 mmHg 77%

    24 February, Monday

    Time Temperature Precipitation Wind Pressure Humidity
    00:00 +24°C° 0 mm 3 mps 740 mmHg 81%
    01:00 +23°C° 0 mm 2 mps 740 mmHg 86%
    02:00 +21°C° 0 mm 2 mps 740 mmHg 90%
    03:00 +21°C° 0 mm 2 mps 739 mmHg 92%
    04:00 +21°C° 0 mm 2 mps 739 mmHg 93%
    05:00 +20°C° 0 mm 2 mps 739 mmHg 95%
    06:00 +23°C° 0 mm 2 mps 740 mmHg 89%
    07:00 +24°C° 0 mm 3 mps 741 mmHg 82%
    08:00 +25°C° 0 mm 4 mps 741 mmHg 76%
    09:00 +27°C° 0 mm 4 mps 741 mmHg 63%
    10:00 +30°C° 0 mm 4 mps 741 mmHg 50%
    11:00 +33°C° 0 mm 5 mps 741 mmHg 37%
    12:00 +34°C° 0 mm 4 mps 740 mmHg 32%
    13:00 +35°C° 0 mm 3 mps 739 mmHg 28%
    14:00 +36°C° 0 mm 2 mps 738 mmHg 23%
    15:00 +37°C° 0 mm 2 mps 738 mmHg 22%
    16:00 +37°C° 0 mm 2 mps 738 mmHg 22%
    17:00 +37°C° 0 mm 2 mps 738 mmHg 21%
    18:00 +34°C° 0 mm 2 mps 738 mmHg 26%
    19:00 +31°C° 0 mm 3 mps 738 mmHg 31%
    20:00 +29°C° 0 mm 3 mps 739 mmHg 36%
    21:00 +28°C° 0 mm 4 mps 739 mmHg 49%
    22:00 +27°C° 0 mm 5 mps 738 mmHg 62%
    23:00 +25°C° 0 mm 5 mps 738 mmHg 75%

    25 February, Tuesday

    Time Temperature Precipitation Wind Pressure Humidity
    00:00 +25°C° 0 mm 5 mps 738 mmHg 80%
    01:00 +23°C° 0 mm 4 mps 737 mmHg 84%
    02:00 +23°C° 0 mm 4 mps 737 mmHg 88%
    03:00 +24°C° 0 mm 3 mps 737 mmHg 89%
    04:00 +22°C° 0 mm 3 mps 737 mmHg 90%
    05:00 +23°C° 0 mm 2 mps 737 mmHg 91%
    06:00 +24°C° 0 mm 3 mps 738 mmHg 85%
    07:00 +26°C° 0 mm 3 mps 739 mmHg 79%
    08:00 +27°C° 0 mm 4 mps 740 mmHg 73%
    09:00 +29°C° 0 mm 4 mps 739 mmHg 62%
    10:00 +33°C° 0 mm 4 mps 739 mmHg 51%
    11:00 +35°C° 0 mm 4 mps 739 mmHg 40%
    12:00 +36°C° 0 mm 4 mps 738 mmHg 35%
    13:00 +37°C° 0 mm 4 mps 737 mmHg 30%
    14:00 +39°C° 0 mm 3 mps 736 mmHg 26%
    15:00 +38°C° 0 mm 3 mps 736 mmHg 25%
    16:00 +38°C° 0 mm 3 mps 736 mmHg 25%
    17:00 +38°C° 0 mm 3 mps 736 mmHg 24%
    18:00 +36°C° 0 mm 5 mps 736 mmHg 32%
    19:00 +34°C° 0 mm 6 mps 737 mmHg 40%
    20:00 +32°C° 0 mm 8 mps 737 mmHg 47%
    21:00 +29°C° 0 mm 6 mps 738 mmHg 57%
    22:00 +28°C° 0 mm 5 mps 738 mmHg 66%
    23:00 +27°C° 0 mm 4 mps 738 mmHg 75%
    Show more